QPF
0.00 0.00 0.01 0.01 0.02 0.01 0.01 0.02 0.03 0.03 0.02 0.03 0.03 0.03 0.03 0.02 0.02 0.02 0.03 0.03 0.03 0.03 0.05 0.04 0.05 0.04 0.03 0.04 0.04 0.05 0.06 0.06 0.05 0.05 0.04 0.02 0.02 0.01 0.01 0.01 0.01 0.02 0.03
0.01 0.01 0.03 0.04 0.04 0.03 0.02 0.03 0.04 0.03 0.02 0.03 0.03 0.02 0.02 0.02 0.03 0.03 0.04 0.03 0.03 0.03 0.03 0.05 0.05 0.04 0.05 0.05 0.05 0.07 0.07 0.07 0.07 0.08 0.08 0.07 0.06 0.03 0.01 0.01 0.01 0.02 0.03
0.01 0.01 0.02 0.03 0.02 0.02 0.02 0.03 0.03 0.04 0.04 0.04 0.02 0.02 0.02 0.03 0.04 0.04 0.05 0.04 0.03 0.02 0.03 0.04 0.05 0.05 0.05 0.06 0.07 0.08 0.09 0.10 0.09 0.08 0.07 0.08 0.08 0.04 0.02 0.02 0.03 0.03 0.04
0.01 0.02 0.03 0.02 0.01 0.01 0.02 0.03 0.04 0.05 0.03 0.03 0.03 0.03 0.03 0.05 0.05 0.04 0.04 0.04 0.03 0.02 0.02 0.03 0.04 0.04 0.05 0.06 0.06 0.08 0.08 0.09 0.08 0.08 0.06 0.05 0.06 0.05 0.05 0.05 0.04 0.04 0.04
0.01 0.02 0.02 0.02 0.02 0.01 0.01 0.03 0.06 0.06 0.04 0.03 0.04 0.04 0.04 0.05 0.05 0.05 0.05 0.04 0.03 0.03 0.02 0.02 0.03 0.04 0.06 0.06 0.06 0.08 0.07 0.06 0.06 0.06 0.06 0.06 0.05 0.05 0.05 0.05 0.06 0.05 0.04
0.01 0.03 0.03 0.04 0.04 0.02 0.01 0.02 0.05 0.06 0.05 0.04 0.04 0.04 0.05 0.05 0.06 0.08 0.08 0.06 0.05 0.04 0.03 0.03 0.04 0.04 0.06 0.05 0.05 0.05 0.05 0.05 0.05 0.05 0.07 0.06 0.06 0.05 0.05 0.05 0.05 0.06 0.04
0.02 0.04 0.05 0.05 0.05 0.05 0.03 0.03 0.06 0.06 0.05 0.05 0.04 0.05 0.06 0.06 0.07 0.08 0.08 0.06 0.05 0.05 0.05 0.05 0.05 0.04 0.05 0.05 0.04 0.03 0.03 0.04 0.05 0.05 0.06 0.05 0.05 0.04 0.05 0.06 0.04 0.05 0.04
0.01 0.03 0.05 0.06 0.07 0.06 0.07 0.08 0.06 0.06 0.05 0.06 0.07 0.07 0.08 0.08 0.09 0.08 0.07 0.06 0.05 0.05 0.06 0.06 0.05 0.04 0.04 0.04 0.05 0.03 0.03 0.03 0.03 0.04 0.06 0.04 0.03 0.03 0.04 0.05 0.05 0.04 0.03
0.01 0.03 0.03 0.05 0.08 0.09 0.09 0.09 0.07 0.05 0.04 0.04 0.07 0.08 0.08 0.08 0.11 0.11 0.06 0.04 0.04 0.04 0.05 0.05 0.04 0.05 0.04 0.04 0.04 0.03 0.03 0.03 0.03 0.04 0.05 0.04 0.03 0.02 0.02 0.03 0.04 0.05 0.05
0.02 0.02 0.04 0.06 0.04 0.04 0.04 0.03 0.02 0.02 0.01 0.03 0.07 0.08 0.07 0.08 0.09 0.09 0.05 0.04 0.03 0.03 0.03 0.03 0.04 0.04 0.03 0.03 0.04 0.03 0.03 0.03 0.03 0.04 0.05 0.06 0.04 0.03 0.02 0.03 0.03 0.04 0.05
0.04 0.04 0.05 0.04 0.02 0.01 0.01 0.02 0.02 0.03 0.03 0.02 0.03 0.04 0.05 0.07 0.07 0.04 0.03 0.03 0.03 0.03 0.03 0.04 0.03 0.03 0.03 0.03 0.03 0.03 0.03 0.04 0.03 0.03 0.03 0.04 0.06 0.05 0.03 0.03 0.04 0.04 0.04
0.03 0.04 0.04 0.03 0.02 0.02 0.02 0.02 0.03 0.04 0.04 0.03 0.03 0.03 0.04 0.04 0.04 0.04 0.03 0.03 0.04 0.03 0.02 0.03 0.03 0.03 0.03 0.02 0.02 0.02 0.03 0.04 0.03 0.03 0.03 0.04 0.05 0.05 0.04 0.04 0.03 0.03 0.05
0.01 0.01 0.02 0.02 0.01 0.01 0.01 0.02 0.04 0.05 0.05 0.05 0.03 0.02 0.04 0.05 0.04 0.04 0.04 0.04 0.03 0.03 0.03 0.03 0.03 0.03 0.03 0.02 0.02 0.02 0.02 0.03 0.03 0.03 0.03 0.04 0.05 0.06 0.06 0.05 0.04 0.03 0.03
0.00 0.00 0.01 0.01 0.01 0.01 0.01 0.02 0.03 0.05 0.07 0.06 0.05 0.05 0.05 0.05 0.04 0.04 0.04 0.04 0.03 0.02 0.02 0.03 0.03 0.02 0.03 0.02 0.02 0.02 0.02 0.03 0.04 0.04 0.04 0.04 0.05 0.05 0.05 0.05 0.04 0.04 0.05
0.00 0.00 0.00 0.00 0.01 0.01 0.02 0.03 0.03 0.05 0.06 0.04 0.05 0.05 0.04 0.05 0.05 0.05 0.04 0.04 0.03 0.02 0.03 0.03 0.03 0.02 0.02 0.02 0.02 0.02 0.02 0.03 0.03 0.03 0.03 0.03 0.04 0.04 0.03 0.03 0.03 0.04 0.05
0.01 0.00 0.00 0.00 0.00 0.00 0.01 0.02 0.02 0.03 0.03 0.03 0.03 0.03 0.02 0.02 0.03 0.03 0.04 0.04 0.03 0.04 0.04 0.03 0.03 0.02 0.01 0.01 0.01 0.01 0.02 0.02 0.02 0.03 0.03 0.03 0.03 0.02 0.02 0.02 0.02 0.02 0.03
0.01 0.01 0.01 0.00 0.00 0.00 0.01 0.01 0.01 0.01 0.01 0.02 0.01 0.01 0.02 0.01 0.02 0.02 0.02 0.02 0.03 0.03 0.04 0.03 0.03 0.02 0.01 0.01 0.01 0.01 0.01 0.01 0.02 0.03 0.03 0.01 0.01 0.01 0.02 0.02 0.02 0.02 0.02
0.01 0.01 0.01 0.00 0.00 0.00 0.01 0.01 0.01 0.01 0.01 0.01 0.00 0.01 0.01 0.01 0.01 0.01 0.01 0.01 0.02 0.03 0.03 0.03 0.03 0.03 0.01 0.01 0.01 0.01 0.01 0.01 0.01 0.01 0.01 0.01 0.02 0.01 0.02 0.03 0.02 0.02 0.02
0.01 0.01 0.00 0.01 0.01 0.01 0.01 0.01 0.01 0.01 0.01 0.00 0.00 0.00 0.01 0.01 0.01 0.00 0.01 0.01 0.02 0.02 0.03 0.03 0.03 0.03 0.02 0.02 0.02 0.02 0.01 0.01 0.00 0.00 0.00 0.01 0.02 0.02 0.02 0.02 0.01 0.02 0.03
0.01 0.00 0.00 0.00 0.01 0.01 0.00 0.00 0.00 0.00 0.01 0.00 0.00 0.00 0.00 0.01 0.01 0.01 0.01 0.01 0.01 0.01 0.01 0.01 0.01 0.02 0.02 0.02 0.02 0.02 0.01 0.01 0.00 0.01 0.01 0.01 0.02 0.03 0.02 0.03 0.03 0.03 0.05
0.00 0.00 0.00 0.00 0.01 0.01 0.00 0.01 0.01 0.00 0.00 0.00 0.00 0.00 0.00 0.01 0.01 0.01 0.01 0.02 0.01 0.01 0.01 0.01 0.01 0.01 0.01 0.02 0.02 0.02 0.01 0.01 0.01 0.01 0.01 0.01 0.02 0.02 0.02 0.03 0.03 0.04 0.05
0.00 0.00 0.00 0.01 0.01 0.01 0.01 0.01 0.01 0.01 0.00 0.00 0.00 0.00 0.00 0.01 0.01 0.02 0.02 0.02 0.02 0.02 0.02 0.02 0.02 0.01 0.01 0.01 0.01 0.02 0.02 0.01 0.02 0.02 0.01 0.01 0.02 0.02 0.02 0.02 0.02 0.02 0.02
0.00 0.00 0.00 0.01 0.02 0.02 0.02 0.03 0.03 0.01 0.00 0.00 0.00 0.00 0.00 0.00 0.01 0.01 0.02 0.02 0.02 0.02 0.02 0.02 0.02 0.02 0.02 0.02 0.02 0.03 0.03 0.02 0.02 0.01 0.02 0.03 0.03 0.03 0.03 0.03 0.02 0.02 0.02
0.00 0.00 0.01 0.02 0.02 0.02 0.03 0.04 0.02 0.01 0.01 0.01 0.01 0.01 0.01 0.01 0.01 0.01 0.01 0.02 0.02 0.03 0.03 0.03 0.02 0.02 0.02 0.02 0.03 0.03 0.02 0.03 0.02 0.02 0.02 0.03 0.03 0.03 0.02 0.03 0.03 0.03 0.03
0.01 0.02 0.02 0.02 0.02 0.02 0.03 0.03 0.03 0.02 0.01 0.01 0.01 0.01 0.01 0.01 0.02 0.02 0.02 0.03 0.03 0.04 0.05 0.04 0.03 0.02 0.02 0.02 0.03 0.03 0.03 0.03 0.02 0.02 0.02 0.03 0.03 0.03 0.04 0.04 0.04 0.03 0.03
0.01 0.02 0.03 0.03 0.04 0.04 0.05 0.04 0.03 0.03 0.04 0.04 0.04 0.04 0.05 0.05 0.05 0.06 0.06 0.05 0.04 0.04 0.03 0.03 0.02 0.02 0.01 0.02 0.03 0.03 0.04 0.04 0.03 0.03 0.02 0.04 0.05 0.04 0.05 0.06 0.06 0.04 0.02
MSLP
1010.70 1010.74 1010.80 1010.83 1010.81 1010.73 1010.60 1010.43 1010.24 1010.05 1009.88 1009.73 1009.61 1009.51 1009.43 1009.35 1009.26 1009.17 1009.07 1008.97 1008.87 1008.78 1008.70 1008.62 1008.54 1008.45 1008.36 1008.25 1008.11 1007.96 1007.78 1007.58 1007.34 1007.08 1006.79 1006.47 1006.11 1005.73 1005.34 1004.96 1004.61 1004.35 1004.18
1010.73 1010.81 1010.88 1010.91 1010.87 1010.77 1010.62 1010.44 1010.27 1010.13 1010.04 1009.98 1009.95 1009.93 1009.90 1009.83 1009.73 1009.60 1009.44 1009.29 1009.15 1009.04 1008.96 1008.91 1008.87 1008.83 1008.78 1008.70 1008.58 1008.42 1008.22 1008.00 1007.75 1007.47 1007.17 1006.82 1006.43 1005.99 1005.52 1005.03 1004.55 1004.13 1003.80
1010.73 1010.84 1010.93 1010.96 1010.92 1010.81 1010.66 1010.50 1010.37 1010.31 1010.30 1010.35 1010.42 1010.48 1010.50 1010.45 1010.34 1010.16 1009.96 1009.74 1009.56 1009.42 1009.33 1009.30 1009.29 1009.29 1009.26 1009.20 1009.09 1008.93 1008.72 1008.49 1008.23 1007.94 1007.63 1007.29 1006.88 1006.42 1005.89 1005.32 1004.74 1004.18 1003.71
1010.67 1010.80 1010.90 1010.95 1010.92 1010.82 1010.70 1010.59 1010.53 1010.54 1010.64 1010.79 1010.96 1011.10 1011.17 1011.15 1011.02 1010.81 1010.55 1010.29 1010.05 1009.88 1009.78 1009.75 1009.75 1009.76 1009.75 1009.70 1009.58 1009.41 1009.19 1008.95 1008.68 1008.41 1008.11 1007.79 1007.40 1006.94 1006.40 1005.79 1005.13 1004.48 1003.87
1010.52 1010.66 1010.79 1010.86 1010.86 1010.80 1010.73 1010.67 1010.69 1010.79 1010.98 1011.23 1011.48 1011.69 1011.80 1011.80 1011.67 1011.44 1011.14 1010.83 1010.56 1010.36 1010.24 1010.20 1010.19 1010.20 1010.19 1010.12 1009.98 1009.79 1009.56 1009.30 1009.04 1008.78 1008.52 1008.23 1007.89 1007.47 1006.96 1006.35 1005.66 1004.95 1004.25
1010.29 1010.45 1010.59 1010.70 1010.74 1010.74 1010.72 1010.74 1010.83 1011.01 1011.28 1011.60 1011.91 1012.17 1012.31 1012.32 1012.19 1011.94 1011.63 1011.30 1011.01 1010.79 1010.65 1010.59 1010.57 1010.56 1010.52 1010.42 1010.26 1010.04 1009.78 1009.51 1009.25 1009.01 1008.79 1008.56 1008.28 1007.93 1007.48 1006.91 1006.25 1005.52 1004.78
1010.02 1010.18 1010.35 1010.49 1010.59 1010.65 1010.70 1010.78 1010.94 1011.18 1011.50 1011.86 1012.20 1012.48 1012.64 1012.65 1012.53 1012.28 1011.96 1011.63 1011.34 1011.11 1010.97 1010.89 1010.85 1010.81 1010.74 1010.60 1010.39 1010.14 1009.85 1009.57 1009.31 1009.10 1008.92 1008.75 1008.55 1008.29 1007.92 1007.43 1006.82 1006.12 1005.38
1009.74 1009.90 1010.10 1010.28 1010.43 1010.56 1010.67 1010.82 1011.02 1011.30 1011.64 1012.00 1012.35 1012.62 1012.78 1012.80 1012.67 1012.44 1012.14 1011.83 1011.56 1011.35 1011.21 1011.13 1011.07 1011.00 1010.88 1010.70 1010.45 1010.15 1009.83 1009.52 1009.27 1009.07 1008.93 1008.82 1008.69 1008.52 1008.24 1007.85 1007.32 1006.69 1005.97
1009.49 1009.66 1009.89 1010.11 1010.32 1010.50 1010.67 1010.86 1011.10 1011.39 1011.73 1012.08 1012.40 1012.65 1012.79 1012.80 1012.68 1012.48 1012.22 1011.95 1011.71 1011.54 1011.41 1011.33 1011.26 1011.17 1011.01 1010.78 1010.49 1010.15 1009.80 1009.47 1009.20 1009.01 1008.89 1008.82 1008.75 1008.65 1008.46 1008.15 1007.72 1007.15 1006.49
1009.29 1009.48 1009.74 1010.01 1010.26 1010.49 1010.71 1010.94 1011.20 1011.49 1011.81 1012.13 1012.41 1012.63 1012.74 1012.75 1012.65 1012.48 1012.26 1012.05 1011.87 1011.73 1011.64 1011.58 1011.50 1011.38 1011.19 1010.93 1010.60 1010.22 1009.83 1009.48 1009.20 1009.00 1008.88 1008.81 1008.77 1008.71 1008.58 1008.34 1007.97 1007.49 1006.89
1009.13 1009.36 1009.65 1009.96 1010.27 1010.55 1010.81 1011.07 1011.35 1011.64 1011.93 1012.22 1012.46 1012.64 1012.73 1012.74 1012.66 1012.52 1012.36 1012.21 1012.09 1012.00 1011.94 1011.89 1011.81 1011.68 1011.47 1011.17 1010.81 1010.41 1010.00 1009.62 1009.31 1009.08 1008.93 1008.85 1008.79 1008.73 1008.60 1008.39 1008.07 1007.64 1007.11
1009.00 1009.27 1009.60 1009.96 1010.31 1010.63 1010.94 1011.24 1011.53 1011.82 1012.11 1012.37 1012.59 1012.74 1012.82 1012.82 1012.76 1012.67 1012.56 1012.46 1012.38 1012.34 1012.31 1012.26 1012.18 1012.04 1011.82 1011.51 1011.13 1010.71 1010.28 1009.88 1009.54 1009.27 1009.07 1008.93 1008.82 1008.70 1008.55 1008.32 1008.01 1007.61 1007.12
1008.86 1009.18 1009.56 1009.95 1010.34 1010.71 1011.07 1011.41 1011.74 1012.05 1012.34 1012.59 1012.79 1012.94 1013.01 1013.02 1012.98 1012.91 1012.84 1012.78 1012.74 1012.71 1012.70 1012.66 1012.57 1012.42 1012.18 1011.87 1011.49 1011.06 1010.63 1010.21 1009.84 1009.52 1009.26 1009.04 1008.84 1008.64 1008.41 1008.13 1007.79 1007.39 1006.94
1008.68 1009.05 1009.47 1009.90 1010.33 1010.75 1011.16 1011.56 1011.93 1012.28 1012.59 1012.86 1013.06 1013.20 1013.27 1013.29 1013.26 1013.21 1013.15 1013.11 1013.08 1013.06 1013.04 1012.99 1012.89 1012.72 1012.48 1012.17 1011.80 1011.38 1010.95 1010.53 1010.13 1009.77 1009.44 1009.12 1008.82 1008.51 1008.18 1007.82 1007.43 1007.01 1006.57
1008.46 1008.87 1009.32 1009.79 1010.26 1010.73 1011.20 1011.65 1012.09 1012.48 1012.83 1013.13 1013.34 1013.49 1013.56 1013.58 1013.55 1013.50 1013.44 1013.39 1013.35 1013.31 1013.27 1013.19 1013.07 1012.89 1012.65 1012.34 1011.98 1011.59 1011.18 1010.76 1010.35 1009.95 1009.55 1009.15 1008.74 1008.32 1007.88 1007.42 1006.96 1006.51 1006.07
1008.19 1008.63 1009.11 1009.61 1010.13 1010.65 1011.18 1011.70 1012.20 1012.65 1013.04 1013.36 1013.60 1013.75 1013.83 1013.83 1013.79 1013.73 1013.65 1013.57 1013.50 1013.43 1013.34 1013.23 1013.08 1012.89 1012.64 1012.34 1012.01 1011.65 1011.26 1010.86 1010.45 1010.03 1009.58 1009.11 1008.60 1008.07 1007.53 1006.99 1006.46 1005.96 1005.51
1007.91 1008.38 1008.88 1009.41 1009.97 1010.55 1011.13 1011.72 1012.27 1012.77 1013.21 1013.55 1013.81 1013.96 1014.02 1014.02 1013.96 1013.86 1013.75 1013.64 1013.53 1013.41 1013.28 1013.13 1012.95 1012.74 1012.49 1012.20 1011.89 1011.56 1011.21 1010.83 1010.43 1009.99 1009.52 1008.99 1008.42 1007.81 1007.19 1006.57 1005.99 1005.46 1005.01
1007.67 1008.16 1008.68 1009.24 1009.84 1010.47 1011.11 1011.74 1012.34 1012.88 1013.34 1013.70 1013.95 1014.10 1014.15 1014.12 1014.03 1013.91 1013.77 1013.63 1013.48 1013.32 1013.16 1012.97 1012.76 1012.53 1012.27 1011.99 1011.70 1011.39 1011.07 1010.71 1010.33 1009.89 1009.40 1008.84 1008.23 1007.57 1006.90 1006.24 1005.63 1005.08 1004.63
1007.53 1008.03 1008.58 1009.18 1009.81 1010.47 1011.15 1011.81 1012.44 1012.99 1013.46 1013.81 1014.05 1014.18 1014.21 1014.16 1014.05 1013.91 1013.75 1013.59 1013.41 1013.23 1013.04 1012.84 1012.61 1012.36 1012.10 1011.83 1011.54 1011.24 1010.93 1010.59 1010.21 1009.77 1009.27 1008.70 1008.08 1007.41 1006.72 1006.05 1005.43 1004.89 1004.45
1007.54 1008.06 1008.63 1009.25 1009.91 1010.60 1011.29 1011.96 1012.58 1013.12 1013.57 1013.90 1014.11 1014.21 1014.22 1014.15 1014.04 1013.89 1013.73 1013.57 1013.40 1013.22 1013.03 1012.81 1012.58 1012.33 1012.06 1011.78 1011.49 1011.19 1010.87 1010.52 1010.14 1009.70 1009.19 1008.62 1008.00 1007.33 1006.66 1006.00 1005.41 1004.89 1004.48
1007.71 1008.25 1008.84 1009.48 1010.15 1010.83 1011.51 1012.17 1012.76 1013.26 1013.66 1013.95 1014.12 1014.20 1014.19 1014.11 1014.00 1013.87 1013.74 1013.60 1013.45 1013.30 1013.13 1012.94 1012.72 1012.47 1012.20 1011.91 1011.60 1011.27 1010.93 1010.56 1010.15 1009.69 1009.17 1008.60 1007.99 1007.35 1006.71 1006.09 1005.54 1005.07 1004.70
1008.03 1008.59 1009.18 1009.82 1010.47 1011.14 1011.79 1012.39 1012.93 1013.37 1013.71 1013.94 1014.07 1014.11 1014.09 1014.02 1013.93 1013.83 1013.74 1013.65 1013.56 1013.46 1013.34 1013.18 1012.99 1012.75 1012.48 1012.18 1011.84 1011.48 1011.10 1010.69 1010.24 1009.75 1009.22 1008.64 1008.04 1007.43 1006.83 1006.27 1005.78 1005.37 1005.05
1008.45 1009.00 1009.59 1010.20 1010.82 1011.44 1012.03 1012.56 1013.02 1013.39 1013.66 1013.83 1013.91 1013.93 1013.90 1013.84 1013.78 1013.73 1013.69 1013.67 1013.65 1013.62 1013.56 1013.45 1013.30 1013.09 1012.82 1012.51 1012.15 1011.76 1011.33 1010.87 1010.37 1009.85 1009.29 1008.71 1008.12 1007.54 1006.99 1006.49 1006.06 1005.72 1005.47
1008.88 1009.41 1009.96 1010.53 1011.10 1011.65 1012.16 1012.61 1012.98 1013.27 1013.46 1013.58 1013.62 1013.61 1013.57 1013.54 1013.51 1013.51 1013.54 1013.59 1013.64 1013.68 1013.69 1013.65 1013.54 1013.36 1013.12 1012.81 1012.44 1012.01 1011.55 1011.04 1010.50 1009.95 1009.37 1008.78 1008.21 1007.66 1007.15 1006.71 1006.34 1006.07 1005.88
1009.23 1009.71 1010.21 1010.71 1011.21 1011.68 1012.10 1012.47 1012.76 1012.97 1013.10 1013.16 1013.17 1013.15 1013.11 1013.09 1013.10 1013.15 1013.23 1013.34 1013.46 1013.57 1013.64 1013.66 1013.61 1013.47 1013.26 1012.96 1012.59 1012.16 1011.68 1011.15 1010.59 1010.01 1009.42 1008.84 1008.28 1007.76 1007.30 1006.91 1006.60 1006.39 1006.26
1009.41 1009.82 1010.25 1010.68 1011.09 1011.48 1011.83 1012.12 1012.34 1012.49 1012.57 1012.60 1012.59 1012.56 1012.54 1012.53 1012.57 1012.65 1012.77 1012.92 1013.09 1013.24 1013.37 1013.44 1013.44 1013.35 1013.18 1012.92 1012.57 1012.16 1011.68 1011.16 1010.60 1010.03 1009.45 1008.89 1008.36 1007.87 1007.45 1007.10 1006.85 1006.68 1006.59
Thickness
5827 5826 5823 5819 5814 5809 5804 5801 5797 5795 5793 5791 5788 5785 5783 5784 5784 5783 5781 5779 5778 5777 5776 5774 5773 5772 5770 5769 5768 5767 5765 5764 5764 5760 5757 5760 5763 5763 5763 5763 5761 5761 5759
5825 5824 5822 5819 5814 5809 5805 5802 5799 5797 5795 5793 5791 5789 5787 5786 5785 5784 5782 5780 5779 5778 5777 5774 5773 5772 5770 5768 5767 5766 5763 5763 5764 5758 5752 5748 5751 5757 5762 5761 5759 5758 5758
5826 5824 5821 5819 5816 5811 5807 5805 5801 5799 5797 5796 5794 5791 5789 5787 5784 5782 5782 5781 5780 5778 5776 5775 5773 5772 5770 5766 5766 5766 5763 5759 5762 5762 5754 5745 5741 5746 5754 5757 5757 5756 5755
5834 5828 5823 5820 5818 5815 5813 5808 5804 5801 5799 5797 5794 5790 5786 5782 5783 5784 5783 5782 5781 5779 5777 5775 5774 5772 5770 5767 5767 5767 5765 5761 5758 5759 5759 5756 5752 5743 5741 5748 5753 5753 5752
5837 5832 5828 5824 5822 5820 5815 5811 5806 5802 5800 5797 5794 5791 5788 5786 5786 5785 5783 5781 5781 5780 5778 5776 5774 5772 5769 5768 5767 5765 5763 5762 5758 5756 5756 5755 5753 5750 5741 5738 5742 5746 5749
5841 5836 5833 5828 5824 5822 5818 5813 5806 5802 5800 5797 5795 5791 5788 5787 5784 5782 5780 5780 5780 5779 5777 5776 5773 5771 5769 5767 5765 5764 5762 5760 5758 5756 5755 5752 5749 5746 5744 5738 5738 5739 5743
5840 5834 5831 5826 5823 5821 5818 5813 5806 5801 5800 5797 5795 5792 5790 5787 5784 5782 5781 5779 5778 5777 5775 5775 5772 5769 5767 5765 5764 5762 5760 5758 5756 5754 5753 5752 5750 5749 5746 5740 5737 5736 5739
5841 5835 5832 5828 5824 5821 5817 5813 5806 5802 5800 5797 5795 5793 5791 5788 5785 5784 5782 5780 5779 5777 5776 5774 5771 5768 5766 5764 5761 5759 5758 5756 5754 5753 5751 5749 5749 5749 5746 5741 5735 5730 5731
5841 5837 5835 5831 5827 5822 5818 5813 5807 5802 5800 5798 5795 5792 5790 5788 5786 5784 5782 5780 5779 5778 5775 5773 5770 5767 5764 5762 5759 5756 5755 5753 5751 5750 5748 5746 5746 5746 5745 5743 5739 5729 5722
5842 5839 5834 5830 5828 5824 5820 5816 5810 5804 5801 5798 5795 5793 5790 5788 5786 5783 5780 5779 5777 5775 5772 5770 5768 5765 5762 5760 5757 5754 5752 5750 5748 5746 5744 5743 5742 5742 5742 5740 5738 5734 5726
5840 5837 5832 5828 5827 5824 5819 5814 5809 5804 5800 5797 5794 5792 5790 5788 5785 5782 5779 5778 5775 5773 5770 5767 5765 5762 5759 5757 5754 5751 5750 5747 5745 5743 5741 5739 5739 5737 5736 5735 5733 5730 5727
5839 5836 5832 5827 5823 5820 5817 5812 5808 5803 5800 5797 5794 5791 5788 5786 5783 5780 5779 5777 5774 5771 5769 5766 5763 5760 5757 5755 5752 5748 5746 5744 5741 5739 5737 5736 5735 5732 5730 5729 5727 5725 5724
5833 5831 5826 5822 5819 5817 5814 5810 5806 5802 5799 5795 5792 5789 5786 5784 5781 5778 5777 5775 5772 5769 5767 5764 5760 5757 5755 5752 5749 5746 5743 5741 5739 5736 5733 5732 5729 5726 5725 5724 5722 5721 5720
5826 5823 5819 5817 5815 5812 5809 5806 5803 5800 5797 5792 5789 5785 5783 5781 5779 5777 5774 5772 5770 5767 5764 5761 5758 5756 5752 5749 5746 5744 5740 5738 5735 5733 5731 5728 5725 5723 5721 5719 5717 5716 5713
5818 5815 5812 5810 5809 5806 5804 5802 5799 5796 5793 5789 5785 5782 5782 5779 5776 5774 5771 5769 5766 5764 5761 5758 5755 5753 5750 5746 5743 5739 5738 5734 5731 5729 5727 5724 5722 5719 5716 5715 5712 5710 5707
5812 5811 5808 5804 5802 5800 5798 5796 5793 5791 5789 5784 5781 5779 5777 5774 5771 5769 5766 5764 5761 5759 5757 5754 5751 5748 5747 5744 5740 5736 5734 5731 5728 5724 5722 5720 5718 5715 5712 5710 5708 5705 5702
5807 5805 5803 5801 5798 5797 5795 5791 5790 5787 5784 5780 5777 5775 5772 5768 5766 5764 5761 5758 5756 5753 5750 5749 5746 5744 5741 5738 5736 5732 5730 5727 5724 5722 5719 5717 5716 5712 5709 5706 5704 5701 5699
5802 5801 5800 5797 5796 5795 5792 5789 5786 5782 5778 5774 5772 5769 5766 5763 5761 5759 5756 5753 5751 5748 5745 5744 5742 5739 5736 5733 5730 5727 5725 5723 5720 5718 5715 5711 5708 5706 5703 5701 5699 5697 5695
5798 5797 5797 5795 5792 5789 5787 5783 5779 5775 5771 5768 5765 5764 5761 5758 5755 5752 5750 5748 5745 5743 5741 5739 5737 5734 5731 5728 5725 5722 5720 5717 5715 5713 5710 5707 5704 5701 5697 5695 5692 5691 5689
5793 5791 5790 5788 5784 5782 5780 5774 5770 5767 5764 5762 5760 5759 5756 5753 5750 5747 5745 5743 5741 5738 5736 5734 5732 5730 5726 5722 5719 5715 5713 5711 5709 5707 5705 5702 5699 5695 5692 5688 5686 5683 5682
5785 5783 5781 5777 5775 5774 5770 5765 5762 5759 5759 5758 5754 5751 5749 5747 5744 5742 5740 5737 5735 5732 5729 5727 5726 5724 5721 5717 5713 5709 5706 5705 5703 5702 5700 5698 5694 5690 5686 5682 5680 5678 5676
5775 5774 5770 5767 5767 5766 5761 5756 5753 5754 5753 5750 5746 5744 5742 5740 5739 5735 5732 5730 5728 5724 5721 5719 5718 5718 5716 5713 5708 5704 5700 5698 5696 5695 5694 5692 5688 5684 5680 5677 5676 5674 5671
5765 5764 5761 5757 5756 5755 5752 5746 5746 5747 5744 5741 5738 5736 5734 5732 5730 5728 5725 5722 5720 5718 5715 5713 5711 5710 5709 5706 5702 5698 5695 5691 5689 5689 5687 5684 5680 5677 5675 5672 5670 5668 5666
5754 5753 5750 5747 5744 5744 5742 5739 5739 5738 5735 5731 5729 5727 5724 5723 5721 5720 5718 5715 5713 5711 5708 5706 5704 5702 5701 5698 5695 5692 5688 5684 5681 5679 5678 5676 5673 5671 5669 5668 5666 5664 5663
5743 5742 5739 5736 5734 5733 5732 5731 5729 5728 5724 5721 5719 5718 5716 5715 5712 5711 5709 5708 5705 5704 5700 5699 5697 5694 5691 5688 5684 5681 5680 5678 5674 5672 5671 5670 5667 5666 5665 5664 5663 5661 5659
5732 5730 5728 5726 5724 5723 5721 5721 5720 5717 5713 5710 5709 5709 5708 5706 5705 5703 5701 5700 5698 5696 5695 5692 5688 5686 5683 5680 5677 5673 5671 5669 5666 5664 5665 5664 5662 5661 5660 5658 5657 5656 5654